Location: Cheching
(60.0667°N, 164.2167°W)
Time: 11:50:36
(UTC+00:00)

FENGYUN 1C DEB - Pass Details

Date: 25 September 2021
Orbit: 727 x 819 km, 99.4° (Epoch: 17 October)

Event Time Altitude Azimuth Distance (km) Brightness Sun altitude
Exits shadow 12:39:49 78° 41° (NE) 756 ? -27.2°
Drops below altitude 10° 12:44:37 10° 342° (NNW) 2,265 ? -26.9°
Sets 12:46:56 0° 341° (NNW) 3,204 ? -26.7°
